Dewpoint
60 56 51 49 41 46 47 47 52 50 53 58 61 61 58 60 56 54 67 68 71 73 75 76 78 77 76 76 76 75 75 76 76 76 76 76 76 76 76 76 76 75 74 74 74 74 74 73 73
50 43 49 42 38 39 43 49 48 49 56 57 59 62 59 60 63 65 66 68 69 73 74 76 77 77 76 75 75 75 75 76 76 76 76 76 76 76 76 76 76 75 74 74 74 74 74 73 73
58 43 37 34 37 38 41 49 48 49 55 58 58 58 59 61 63 64 66 66 68 71 74 76 77 77 76 76 75 75 75 75 76 76 76 75 75 75 76 76 76 75 74 74 74 74 74 73 73
41 37 34 32 38 38 45 47 50 47 54 56 55 49 56 63 62 63 68 66 68 71 73 76 77 77 77 76 76 75 75 75 75 76 76 75 75 75 76 76 76 75 75 74 74 74 74 74 73
37 31 27 28 27 42 46 47 49 48 55 51 51 48 52 58 60 68 70 69 69 72 74 75 77 77 77 76 76 76 76 75 75 75 75 75 75 75 75 75 76 75 75 75 75 75 75 75 75
28 25 20 20 24 42 45 49 48 52 54 53 50 52 54 61 61 66 65 67 72 71 72 73 75 76 77 77 76 76 75 75 75 75 75 75 75 74 74 74 75 75 75 75 75 75 75 74 74
24 22 20 18 22 36 43 48 47 54 55 52 52 47 54 62 65 66 66 67 69 71 70 71 73 74 75 76 76 76 76 75 75 75 74 74 74 74 74 74 74 74 75 75 75 75 75 75 74
20 18 14 10 24 33 41 43 42 53 53 53 51 41 42 61 63 65 66 67 68 68 67 68 70 72 73 73 75 75 75 75 75 75 75 74 74 74 74 74 74 75 75 74 75 75 75 75 75
18 15 12 9 20 22 35 31 36 50 50 50 49 46 55 64 65 65 65 66 66 66 66 67 68 68 68 70 72 74 75 75 75 75 74 73 72 71 72 73 74 74 74 74 74 75 75 75 75
15 12 11 16 16 20 20 23 29 46 48 46 47 54 61 65 60 61 64 59 62 63 63 64 66 70 70 68 70 72 71 72 72 72 71 71 70 69 69 70 73 74 74 74 74 74 74 74 68
15 13 13 11 17 19 18 19 21 30 35 50 49 51 53 62 64 64 62 60 61 64 66 63 65 70 67 64 67 69 69 71 70 70 70 69 70 69 69 70 70 71 73 72 72 73 71 67 65
12 13 9 8 15 20 19 20 21 25 39 46 47 48 54 56 60 61 59 60 63 64 64 60 68 69 63 62 68 68 70 71 71 70 70 69 70 66 62 63 61 70 70 70 71 70 66 65 66
11 11 9 11 19 20 21 19 20 25 46 48 48 48 51 56 54 57 62 64 63 62 61 61 64 68 66 64 66 68 68 68 69 70 66 64 63 61 59 60 59 58 64 69 69 67 64 64 65
15 9 9 11 11 20 20 22 21 25 47 48 49 49 50 54 59 61 64 64 62 64 65 66 63 66 66 67 67 67 67 63 61 62 62 62 60 59 57 59 55 55 55 59 65 67 62 65 65
13 9 9 11 10 12 22 21 22 30 47 47 48 50 51 54 57 58 60 62 64 63 63 65 64 63 63 62 62 62 62 61 59 57 58 58 56 54 57 56 52 53 56 57 56 56 58 60 63
15 12 8 11 14 15 22 23 27 33 46 47 48 49 52 53 55 57 58 59 60 60 60 60 61 61 61 61 60 59 60 57 59 57 59 56 56 53 56 54 52 56 57 56 55 55 53 54 54
18 12 14 16 13 13 21 25 28 34 45 46 47 49 51 53 55 56 57 58 59 60 59 60 60 61 60 59 59 59 59 58 58 56 58 54 57 56 57 56 57 56 58 57 56 54 56 54 53
15 13 15 20 18 14 26 28 29 33 41 44 47 48 50 52 54 56 57 58 59 60 60 60 59 60 58 58 56 56 56 56 59 57 58 58 57 58 57 59 58 59 58 57 57 56 56 54 53
20 21 22 23 21 19 25 28 29 31 38 42 45 47 49 51 53 56 57 58 59 58 59 59 58 59 55 55 52 52 53 56 59 59 60 58 59 59 59 59 58 60 57 56 56 57 56 54 54
19 17 18 21 20 18 24 28 30 31 35 41 43 46 48 48 49 52 54 55 56 57 58 58 56 58 55 55 57 56 55 56 59 60 60 60 61 61 61 60 60 59 56 57 57 56 56 56 54
20 17 19 18 18 19 17 15 31 34 36 38 42 44 44 45 45 45 46 53 56 57 57 55 53 55 55 54 52 52 51 53 54 55 58 59 61 61 61 61 61 60 60 57 58 58 57 55 54
23 23 22 18 16 11 16 10 14 33 33 36 36 38 38 39 41 42 43 42 44 47 53 52 53 53 54 53 51 49 46 46 49 52 54 55 57 59 60 61 59 60 60 59 54 57 57 56 55
23 23 22 22 17 14 14 12 20 33 32 33 34 37 37 38 36 36 36 38 39 43 50 52 52 50 52 53 49 49 49 48 49 50 51 49 51 53 54 54 54 54 54 56 57 57 58 58 55
25 20 18 25 18 15 15 19 28 30 32 32 36 37 36 34 35 36 36 38 38 40 41 43 45 49 49 49 49 49 47 47 50 50 48 47 48 51 53 54 53 53 53 53 53 54 54 55 55
21 19 16 14 22 16 18 30 30 32 31 31 32 32 34 36 36 36 36 36 37 39 40 39 38 39 40 42 45 47 48 50 50 49 48 48 48 50 51 50 50 50 50 51 53 52 51 52 53
21 18 18 16 18 14 24 28 30 32 32 31 31 35 37 36 36 34 34 35 36 36 39 41 41 41 44 44 44 45 46 47 49 50 50 50 50 51 49 48 49 49 50 50 50 51 53 54 53
20 21 21 20 27 20 24 30 30 33 31 30 31 36 36 36 34 34 34 37 38 39 41 41 41 41 42 45 44 43 44 46 47 47 49 49 48 49 48 48 48 48 49 50 50 50 50 50 51
15 21 13 25 22 16 20 24 28 28 29 30 31 30 29 29 28 30 33 37 39 39 41 41 41 40 41 42 43 43 43 44 47 46 46 46 47 48 48 49 49 49 48 47 47 47 48 48 50
24 25 19 23 25 20 20 21 29 29 30 29 30 29 29 28 30 30 32 38 39 40 41 41 41 41 41 42 43 43 44 45 45 44 45 46 46 46 47 47 47 47 47 47 47 47 48 49 48
19 15 22 27 19 27 28 26 31 30 30 30 30 29 29 32 32 32 31 38 39 40 41 41 41 42 43 43 43 43 43 43 43 42 43 43 46 47 48 48 49 48 48 47 47 47 48 49 48
Lifted_Index
4 3 1 0 -0 -1 -0 -0 -0 -1 -1 -1 -2 -3 -5 -5 -4 -3 -4 -4 -4 -5 -6 -6 -7 -6 -5 -5 -5 -4 -4 -4 -4 -4 -4 -4 -4 -4 -4 -4 -4 -3 -3 -3 -2 -2 -2 -1 -1
4 3 1 0 -0 -0 -0 -0 -1 -1 -1 -2 -3 -4 -5 -5 -5 -4 -4 -4 -4 -4 -6 -6 -7 -6 -6 -5 -5 -4 -4 -4 -5 -5 -4 -4 -4 -4 -4 -4 -4 -3 -3 -3 -3 -2 -2 -2 -2
3 2 1 1 1 0 -0 -0 -1 -1 -2 -3 -3 -4 -5 -5 -5 -5 -5 -4 -4 -4 -5 -7 -7 -7 -6 -6 -5 -5 -5 -5 -5 -5 -5 -4 -4 -4 -4 -4 -4 -4 -4 -4 -3 -3 -3 -2 -2
3 2 2 1 1 -0 -1 -1 -1 -1 -3 -3 -3 -2 -3 -4 -4 -5 -5 -4 -4 -4 -5 -7 -7 -7 -7 -7 -7 -6 -6 -5 -6 -6 -5 -5 -5 -5 -5 -5 -5 -5 -5 -4 -4 -4 -3 -3 -3
3 2 1 1 1 -0 -1 -1 -1 -2 -2 -2 -1 -1 -2 -3 -4 -4 -4 -4 -4 -5 -5 -6 -7 -8 -8 -8 -8 -7 -7 -6 -6 -6 -6 -6 -5 -5 -5 -5 -5 -5 -5 -5 -4 -4 -4 -4 -3
2 2 1 1 1 -0 -1 -2 -2 -2 -2 -1 0 0 -1 -2 -3 -4 -4 -4 -5 -5 -5 -6 -7 -8 -8 -8 -8 -8 -7 -7 -7 -7 -6 -6 -6 -6 -5 -5 -5 -5 -5 -5 -5 -5 -5 -4 -4
1 1 2 2 1 -0 -2 -2 -2 -2 -1 -0 1 1 0 -2 -3 -4 -4 -5 -5 -6 -5 -6 -6 -7 -7 -8 -8 -8 -8 -8 -8 -7 -7 -7 -6 -6 -6 -5 -5 -5 -5 -5 -5 -5 -5 -5 -5
2 2 1 1 0 -1 -1 -2 -1 -1 -1 -0 1 1 -0 -2 -3 -3 -3 -4 -4 -5 -5 -5 -5 -6 -6 -7 -7 -7 -7 -8 -8 -8 -8 -7 -7 -6 -6 -6 -6 -6 -6 -5 -6 -6 -6 -6 -6
2 2 1 0 0 -0 -1 -1 -1 -1 -1 -0 0 -0 -1 -2 -3 -3 -2 -2 -3 -4 -3 -3 -4 -5 -5 -6 -6 -7 -7 -7 -7 -7 -7 -7 -6 -5 -5 -6 -6 -6 -6 -6 -6 -6 -6 -6 -6
2 1 1 0 0 0 -0 -0 -1 -1 -1 -1 -1 -1 -1 -2 -3 -2 -2 -1 -2 -3 -2 -2 -4 -5 -5 -5 -5 -6 -6 -6 -6 -6 -6 -6 -5 -5 -5 -5 -6 -6 -6 -6 -6 -6 -6 -6 -5
2 1 1 0 1 1 1 1 0 -0 -1 -1 -1 -1 -1 -2 -2 -2 -2 -1 -1 -2 -2 -2 -3 -4 -4 -3 -3 -5 -5 -6 -5 -5 -5 -5 -6 -6 -6 -5 -5 -5 -6 -6 -6 -6 -5 -4 -3
1 1 1 1 1 1 1 2 2 1 1 0 -0 -0 -1 -2 -3 -3 -2 -2 -1 -1 -1 -1 -2 -4 -3 -2 -2 -3 -5 -5 -5 -5 -5 -6 -6 -6 -5 -5 -5 -5 -5 -5 -5 -5 -4 -2 -2
1 1 2 2 2 2 2 2 2 2 2 1 1 1 -1 -2 -3 -4 -3 -3 -3 -2 -2 -1 -2 -3 -3 -3 -3 -3 -3 -4 -5 -5 -6 -6 -5 -4 -4 -3 -4 -3 -3 -3 -4 -4 -3 -2 -1
2 2 2 2 2 2 2 2 2 2 2 2 2 1 -0 -2 -3 -4 -4 -4 -3 -3 -3 -2 -2 -2 -3 -3 -3 -3 -3 -2 -3 -4 -4 -4 -3 -2 -2 -1 -2 -1 -0 -1 -2 -2 -2 -1 -1
2 2 1 1 1 2 2 2 2 2 2 1 1 1 1 -1 -2 -3 -3 -3 -3 -3 -2 -2 -2 -2 -2 -2 -2 -2 -2 -1 -1 -1 -1 -0 0 1 1 1 1 1 1 1 1 0 0 0 0
2 1 1 1 1 1 1 2 2 2 2 1 1 1 1 0 -0 -1 -1 -1 -1 -1 -1 -1 -1 -1 -1 -1 -1 -1 -1 0 1 1 1 2 2 2 2 2 2 1 1 1 2 2 2 2 3
2 1 1 1 1 1 0 1 1 2 2 2 2 2 1 1 0 0 0 0 -0 -0 -0 -0 -0 -0 -0 -1 -1 -0 -0 0 1 1 1 2 3 2 2 1 1 0 -0 0 1 1 2 2 3
2 2 1 1 1 1 0 0 1 1 1 2 2 2 1 1 1 0 0 0 0 0 0 0 0 0 0 -0 -0 0 0 0 0 0 1 1 2 1 1 1 0 -0 -0 -0 1 1 1 1 1
2 1 1 1 1 1 1 1 1 1 1 1 2 2 2 2 1 1 1 1 1 1 1 1 1 1 1 1 1 1 1 1 0 0 1 1 1 0 0 0 -0 -0 -0 0 1 0 0 -0 0
2 1 1 1 1 1 1 1 1 1 1 1 2 2 2 3 3 2 1 1 1 1 2 2 3 3 3 3 3 4 3 3 2 1 1 1 1 0 0 0 0 0 0 1 0 -0 -0 -0 -0
2 2 2 2 2 2 1 1 1 1 1 1 2 2 3 3 3 3 2 2 2 2 2 3 4 4 4 5 5 6 6 5 4 3 2 1 1 1 1 1 1 1 1 1 0 -0 -1 -1 -1
3 3 3 3 2 2 1 1 1 1 1 1 2 2 3 3 3 3 3 3 3 3 2 3 3 4 4 4 5 6 6 6 5 3 2 2 2 1 1 1 1 1 1 1 0 -0 -1 -1 -1
3 3 3 3 2 2 2 1 2 2 1 1 2 2 2 2 3 3 3 3 3 3 3 3 3 3 3 4 4 5 5 5 4 3 2 2 2 2 1 1 1 1 1 1 0 -0 -1 -1 -1
3 3 3 2 2 2 2 2 2 1 1 1 1 2 2 2 2 3 3 3 3 4 4 4 4 4 4 4 4 4 4 4 3 3 3 3 3 2 1 1 1 1 1 1 1 1 1 0 0
3 3 2 1 1 1 2 2 1 1 1 1 1 1 2 2 3 3 3 3 4 4 4 5 5 5 5 5 5 4 4 4 3 3 3 3 3 2 2 1 1 1 2 2 2 2 2 2 2
3 3 2 1 1 1 2 2 1 1 1 1 2 2 2 3 3 3 3 4 4 5 5 5 6 6 6 6 6 5 5 5 5 5 5 4 4 3 3 2 2 2 2 3 3 4 4 4 4
4 4 3 3 2 1 2 2 2 2 2 2 2 3 3 3 3 4 4 5 5 5 5 6 6 6 6 7 6 6 6 6 6 6 6 6 5 5 4 3 3 3 3 4 4 5 6 5 5
4 4 4 3 2 1 2 2 2 2 2 2 3 3 3 3 3 4 4 5 5 5 6 6 6 6 6 7 7 7 7 7 7 7 7 7 6 6 6 5 5 5 5 5 6 7 7 6 6
4 4 4 3 2 2 2 2 2 2 2 3 3 3 3 3 4 4 4 4 5 5 6 6 6 6 6 6 6 7 7 6 7 7 7 7 7 7 7 7 7 6 6 7 7 7 7 7 6
4 4 3 3 3 2 2 2 2 2 3 3 3 3 3 4 4 4 4 4 5 5 6 6 6 6 7 6 6 6 6 6 7 7 7 8 7 7 7 7 7 7 7 7 8 8 7 7 6